Location: Wanzleben
(52.0609°N, 11.4408°E)
Time: 01:57:30
(UTC+00:00)

COSMOS 2406 - Pass Details

Date: 17 January 2021
Orbit: 841 x 865 km, 71.0° (Epoch: 05 March)

Event Time Altitude Azimuth Distance (km) Brightness Sun altitude
Rises 16:12:41 0° 321° (NW) 3,456 6.6 -5.7°
Reaches altitude 10° 16:16:39 10° 347° (NNW) 2,519 5.6 -6.3°
Maximum altitude 16:19:24 13° 16° (NNE) 2,278 5.1 -6.7°
Drops below altitude 10° 16:22:10 10° 45° (NE) 2,518 5.1 -7.1°
Enters shadow 16:23:07 - 53° (NE) 2,695 5.2 -7.2°
